Tracking 22124 objects as of 25-Jan-2021
HD Live streaming from Space Station
objects crossing your sky now

STARLINK-1294

Track STARLINK-1294 now!
10-day predictions
STARLINK-1294 is classified as:


NORAD ID: 45551
Int'l Code: 2020-025W
Perigee: 555.3 km
Apogee: 558.4 km
Inclination: 53.0 °
Period: 95.6 minutes
Semi major axis: 6927 km
RCS: Unknown
Launch date: April 22, 2020
Source: United States (US)
Launch site: AIR FORCE EASTERN TEST RANGE (AFETR)
aabbcc
Your satellite tracking list
Your tracking list is empty




NASA's NSSDC Master Catalog

Two Line Element Set (TLE):
1 45551U 20025W   21024.91230281  .00000066  00000-0  23695-4 0  9995
2 45551  52.9982 200.3731 0002188  95.2256 264.8981 15.05585249 43550
Source of the keplerian elements: AFSPC